Change the Weather History Date:

Thursday, December 13, 2012

  Actual Average Record
Temperature  
Mean Temperature 43 °F -  
Max Temperature 53 °F 57 °F 75 °F (1949)
Min Temperature 31 °F 32 °F 8 °F (1958)
Degree Days  
Heating Degree Days 22    
Moisture  
Dew Point 36 °F    
Average Humidity 80    
Maximum Humidity 95    
Minimum Humidity 59    
Precipitation  
Precipitation 0.16 in - - ()
Sea Level Pressure  
Sea Level Pressure 30.32 in    
Wind  
Wind Speed 8 mph (North)    
Max Wind Speed 16 mph    
Max Gust Speed 21 mph    
Visibility 10 miles    
Events Rain    
Averages and records for this station are not official NWS values.
T = Trace of Precipitation, MM = Missing Value Source: NWS Daily Summary

Daily Weather History Graph

Daily Weather History Graph

Search for Another Location

Airport or City:

Trip Planner

Search our weather history database for the weather conditions in past years. The results will help you decide how hot, cold, wet, or windy it might be!

Date:

Astronomy

Dec. 13, 2012 Rise Set
Actual Time 7:12 AM EST 4:57 PM EST
Civil Twilight 6:43 AM EST 5:25 PM EST
Nautical Twilight 6:11 AM EST 5:57 PM EST
Astronomical Twilight 5:40 AM EST 6:28 PM EST
Moon 7:19 AM EST (12/13) 5:36 PM EST (12/13)
Length of Visible Light 10h 41m
Length of Day
9h 44m
New Moon, 0% of the Moon is Illuminated
Dec 13
New Moon
Dec 20
First Quarter
Dec 28
Full
Jan 4
Last Quarter
Jan 11
New

Hourly Weather History & Observations

Time (EST) Temp. Windchill Dew Point Humidity Pressure Visibility Wind Dir Wind Speed Gust Speed Precip Events Conditions
12:15 AM 39.6 °F 35.4 °F 36.5 °F 89% 30.28 in 10.0 mi North 5.8 mph - 0.01 in Rain Light Rain
12:35 AM 39.6 °F 34.7 °F 36.5 °F 89% 30.28 in 10.0 mi North 6.9 mph - 0.02 in Rain Light Rain
12:55 AM 39.6 °F 34.0 °F 36.5 °F 89% 30.28 in 7.0 mi North 8.1 mph - 0.03 in Rain Rain
1:15 AM 39.4 °F 34.5 °F 36.5 °F 89% 30.30 in 10.0 mi North 6.9 mph - 0.02 in Rain Rain
1:35 AM 39.2 °F 33.6 °F 36.5 °F 90% 30.28 in 5.0 mi North 8.1 mph - 0.05 in Rain Rain
1:55 AM 39.2 °F 33.6 °F 36.3 °F 89% 30.28 in 10.0 mi North 8.1 mph - 0.06 in Rain Light Rain
2:15 AM 39.2 °F 33.6 °F 36.3 °F 89% 30.29 in 10.0 mi North 8.1 mph - N/A   Light Drizzle
2:35 AM 39.4 °F 33.8 °F 36.1 °F 88% 30.31 in 10.0 mi NNE 8.1 mph - N/A Rain Light Rain
2:55 AM 39.6 °F 35.4 °F 36.3 °F 88% 30.31 in 10.0 mi North 5.8 mph - 0.01 in Rain Rain
3:15 AM 39.4 °F 32.3 °F 36.5 °F 89% 30.26 in 7.0 mi NNE 11.5 mph 16.1 mph 0.01 in Rain Light Rain
3:35 AM 39.2 °F 33.0 °F 36.5 °F 90% 30.29 in 10.0 mi NNW 9.2 mph 18.4 mph 0.02 in Rain Light Rain
3:55 AM 39.2 °F 33.6 °F 36.5 °F 90% 30.28 in 10.0 mi North 8.1 mph - 0.03 in Rain Rain
4:15 AM 39.0 °F 31.8 °F 36.5 °F 91% 30.27 in 7.0 mi North 11.5 mph - 0.02 in Rain Rain
4:35 AM 38.7 °F 32.4 °F 36.3 °F 91% 30.26 in 7.0 mi North 9.2 mph - 0.03 in Rain Rain
4:55 AM 38.7 °F 31.8 °F 36.3 °F 91% 30.26 in 10.0 mi North 10.4 mph 17.3 mph 0.03 in   Light Drizzle
5:15 AM 39.0 °F 32.3 °F 36.3 °F 90% 30.28 in 10.0 mi North 10.4 mph - N/A   Light Drizzle
5:35 AM 39.2 °F 34.2 °F 36.3 °F 89% 30.28 in 10.0 mi North 6.9 mph - N/A   Overcast
5:55 AM 39.4 °F 32.7 °F 36.5 °F 89% 30.28 in 10.0 mi North 10.4 mph - N/A   Overcast
6:15 AM 39.6 °F 32.1 °F 36.5 °F 89% 30.28 in 10.0 mi North 12.7 mph - N/A   Overcast
6:35 AM 39.6 °F 34.0 °F 36.5 °F 89% 30.30 in 10.0 mi North 8.1 mph - N/A   Overcast
6:55 AM 39.4 °F 33.8 °F 36.0 °F 88% 30.30 in 10.0 mi North 8.1 mph - N/A   Light Drizzle
7:15 AM 39.4 °F 33.8 °F 35.6 °F 86% 30.31 in 10.0 mi North 8.1 mph - N/A   Overcast
7:35 AM 39.4 °F 33.2 °F 35.2 °F 85% 30.31 in 10.0 mi North 9.2 mph - N/A   Overcast
7:55 AM 39.6 °F 32.5 °F 34.9 °F 83% 30.32 in 10.0 mi North 11.5 mph 18.4 mph N/A   Overcast
8:15 AM 39.7 °F 34.9 °F 34.5 °F 82% 30.32 in 10.0 mi North 6.9 mph - N/A   Overcast
8:35 AM 40.1 °F 33.6 °F 34.2 °F 79% 30.33 in 10.0 mi North 10.4 mph - N/A   Overcast
8:55 AM 40.3 °F 33.9 °F 34.2 °F 79% 30.34 in 10.0 mi North 10.4 mph - N/A   Overcast
9:15 AM 40.6 °F 33.4 °F 34.2 °F 78% 30.34 in 10.0 mi North 12.7 mph 18.4 mph N/A   Overcast
9:35 AM 41.4 °F 34.3 °F 34.5 °F 77% 30.34 in 10.0 mi North 12.7 mph - N/A   Overcast
9:55 AM 42.4 °F 37.0 °F 34.9 °F 75% 30.35 in 10.0 mi North 9.2 mph 17.3 mph N/A   Overcast
10:15 AM 43.5 °F 38.9 °F 35.6 °F 74% 30.36 in 10.0 mi North 8.1 mph 18.4 mph N/A   Overcast
10:35 AM 43.9 °F 39.3 °F 36.0 °F 74% 30.36 in 10.0 mi North 8.1 mph - N/A   Overcast
10:55 AM 44.8 °F 39.9 °F 36.5 °F 73% 30.35 in 10.0 mi North 9.2 mph - N/A   Overcast
11:15 AM 46.0 °F 40.2 °F 37.4 °F 72% 30.35 in 10.0 mi North 12.7 mph 20.7 mph N/A   Overcast
11:35 AM 46.9 °F - 37.4 °F 69% 30.35 in 10.0 mi North 8.1 mph - N/A   Overcast
11:55 AM 48.6 °F - 38.7 °F 69% 30.35 in 10.0 mi NNE 11.5 mph - N/A   Overcast
12:15 PM 49.3 °F - 38.3 °F 66% 30.35 in 10.0 mi North 9.2 mph - N/A   Overcast
12:35 PM 48.9 °F - 38.5 °F 67% 30.34 in 10.0 mi North 8.1 mph - N/A   Overcast
12:55 PM 50.2 °F - 39.0 °F 66% 30.34 in 10.0 mi NNE 9.2 mph - N/A   Mostly Cloudy
1:15 PM 52.3 °F - 39.6 °F 62% 30.32 in 10.0 mi North 6.9 mph - N/A   Scattered Clouds
1:35 PM 52.3 °F - 39.7 °F 62% 30.32 in 10.0 mi NNE 10.4 mph - N/A   Scattered Clouds
1:55 PM 52.9 °F - 39.6 °F 61% 30.32 in 10.0 mi North 12.7 mph - N/A   Scattered Clouds
2:15 PM 52.7 °F - 39.2 °F 60% 30.31 in 10.0 mi North 11.5 mph 16.1 mph N/A   Scattered Clouds
2:35 PM 53.2 °F - 39.4 °F 59% 30.31 in 10.0 mi NNE 13.8 mph 19.6 mph N/A   Mostly Cloudy
2:55 PM 53.1 °F - 39.4 °F 60% 30.32 in 10.0 mi NNE 16.1 mph 19.6 mph N/A   Overcast
3:15 PM 52.7 °F - 39.0 °F 60% 30.32 in 10.0 mi NNE 9.2 mph 17.3 mph N/A   Mostly Cloudy
3:35 PM 52.9 °F - 39.0 °F 59% 30.32 in 10.0 mi NNE 9.2 mph - N/A   Scattered Clouds
3:55 PM 52.7 °F - 39.0 °F 60% 30.32 in 10.0 mi NNE 5.8 mph - N/A   Scattered Clouds
4:15 PM 52.2 °F - 38.8 °F 60% 30.32 in 10.0 mi NNE 10.4 mph - N/A   Scattered Clouds
4:35 PM 50.7 °F - 38.5 °F 63% 30.32 in 10.0 mi NNE 5.8 mph - N/A   Clear
4:55 PM 49.3 °F - 38.3 °F 66% 30.32 in 10.0 mi NNE 4.6 mph - N/A   Clear
5:15 PM 48.0 °F - 38.3 °F 69% 30.32 in 10.0 mi North 4.6 mph - N/A   Clear
5:35 PM 46.9 °F - 37.9 °F 71% 30.31 in 10.0 mi North 4.6 mph - N/A   Clear
8:15 PM 37.0 °F 34.5 °F 34.9 °F 92% 30.35 in 10.0 mi North 3.5 mph - N/A   Clear
8:35 PM 37.4 °F - 35.4 °F 93% 30.34 in 10.0 mi Calm Calm - N/A   Clear
8:55 PM 35.2 °F 32.4 °F 33.4 °F 93% 30.35 in 10.0 mi North 3.5 mph - N/A   Clear
9:15 PM 36.5 °F 33.9 °F 35.1 °F 95% 30.36 in 10.0 mi NNW 3.5 mph - N/A   Clear
9:35 PM 36.5 °F - 34.5 °F 93% 30.35 in 10.0 mi Calm Calm - N/A   Clear
9:55 PM 36.1 °F 33.5 °F 34.5 °F 94% 30.36 in 10.0 mi North 3.5 mph - N/A   Clear
10:15 PM 36.5 °F - 34.2 °F 91% 30.36 in 10.0 mi Calm Calm - N/A   Clear
10:35 PM 33.6 °F 30.6 °F 32.0 °F 94% 30.35 in 10.0 mi North 3.5 mph - N/A   Clear
10:55 PM 35.6 °F 32.8 °F 33.8 °F 93% 30.36 in 10.0 mi North 3.5 mph - N/A   Clear
11:15 PM 36.1 °F - 33.3 °F 89% 30.36 in 10.0 mi Calm Calm - N/A   Clear
11:35 PM 33.4 °F - 31.6 °F 93% 30.35 in 10.0 mi Calm Calm - N/A   Clear
11:55 PM 31.5 °F - 30.0 °F 94% 30.35 in 10.0 mi Calm Calm - N/A   Clear